| time (UTC) | temp C | wind direction | speed KPH | gust KPH | rain 1hr cm | rain 24hr cm | rain mn cm | humidity % | barometer mb |
| 20260505124629 | 12 | 19 | 0.0 | 3.2 | 0.00 | 0.03 | 0.00 | 64 | 1007.7 |
| 20260505123633 | 12 | 19 | 0.0 | 0.0 | 0.00 | 0.03 | 0.00 | 64 | 1007.7 |
| 20260505122635 | 12 | 19 | 1.6 | 3.2 | 0.00 | 0.03 | 0.00 | 64 | 1007.6 |
| 20260505121623 | 12 | 19 | 0.0 | 0.0 | 0.00 | 0.03 | 0.00 | 64 | 1007.6 |
| 20260505120616 | 12 | 19 | 0.0 | 3.2 | 0.00 | 0.03 | 0.00 | 63 | 1007.5 |
| 20260505115622 | 12 | 19 | 1.6 | 3.2 | 0.00 | 0.03 | 0.00 | 63 | 1007.5 |
| 20260505114625 | 12 | 19 | 0.0 | 1.6 | 0.00 | 0.03 | 0.00 | 62 | 1007.3 |
| 20260505113625 | 13 | 19 | 0.0 | 1.6 | 0.00 | 0.03 | 0.00 | 61 | 1007.3 |
| 20260505112629 | 13 | 19 | 0.0 | 3.2 | 0.00 | 0.03 | 0.00 | 60 | 1007.3 |
| 20260505111634 | 13 | 19 | 0.0 | 0.0 | 0.00 | 0.03 | 0.00 | 59 | 1007.3 |
| 20260505110617 | 13 | 19 | 0.0 | 6.4 | 0.00 | 0.03 | 0.00 | 59 | 1007.4 |
| 20260505101616 | 14 | 54 | 6.4 | 8.0 | 0.00 | 0.03 | 0.00 | 56 | 1007.4 |
| 20260505100621 | 14 | 161 | 3.2 | 4.8 | 0.00 | 0.03 | 0.00 | 54 | 1007.4 |
| 20260505095629 | 14 | 170 | 4.8 | 11.3 | 0.00 | 0.03 | 0.00 | 54 | 1007.5 |
| 20260505094633 | 15 | 178 | 6.4 | 12.9 | 0.00 | 0.03 | 0.00 | 54 | 1007.5 |
| 20260505093634 | 15 | 196 | 8.0 | 16.1 | 0.00 | 0.03 | 0.00 | 53 | 1007.6 |
| 20260505092636 | 15 | 182 | 9.7 | 19.3 | 0.00 | 0.03 | 0.00 | 53 | 1007.6 |
| 20260505091630 | 15 | 169 | 8.0 | 17.7 | 0.00 | 0.03 | 0.00 | 53 | 1007.6 |
| 20260505090627 | 15 | 163 | 9.7 | 17.7 | 0.00 | 0.03 | 0.00 | 53 | 1007.6 |
| 20260505085650 | 15 | 168 | 12.9 | 20.9 | 0.00 | 0.03 | 0.00 | 53 | 1007.6 |
| 20260505084632 | 15 | 196 | 8.0 | 17.7 | 0.00 | 0.03 | 0.00 | 53 | 1007.6 |
| 20260505083633 | 15 | 148 | 6.4 | 14.5 | 0.00 | 0.03 | 0.00 | 53 | 1007.6 |
| 20260505082634 | 15 | 181 | 12.9 | 19.3 | 0.00 | 0.03 | 0.00 | 53 | 1007.6 |
| 20260505081619 | 15 | 184 | 11.3 | 16.1 | 0.00 | 0.03 | 0.00 | 54 | 1007.7 |
| 20260505080621 | 15 | 178 | 12.9 | 24.1 | 0.00 | 0.03 | 0.00 | 54 | 1007.8 |
| 20260505075622 | 15 | 144 | 12.9 | 19.3 | 0.00 | 0.03 | 0.00 | 55 | 1008.0 |
| 20260505074623 | 15 | 155 | 6.4 | 17.7 | 0.00 | 0.03 | 0.00 | 55 | 1008.1 |
| 20260505073625 | 15 | 150 | 12.9 | 19.3 | 0.00 | 0.03 | 0.00 | 55 | 1008.3 |
| 20260505072627 | 15 | 165 | 8.0 | 17.7 | 0.00 | 0.03 | 0.00 | 56 | 1008.4 |
| 20260505071650 | 15 | 115 | 11.3 | 24.1 | 0.00 | 0.03 | 0.00 | 56 | 1008.4 |
| 20260505070631 | 15 | 161 | 11.3 | 22.5 | 0.00 | 0.03 | 0.00 | 56 | 1008.4 |
| 20260505065632 | 15 | 215 | 12.9 | 20.9 | 0.00 | 0.03 | 0.00 | 56 | 1008.4 |
| 20260505064618 | 16 | 181 | 16.1 | 30.6 | 0.00 | 0.03 | 0.00 | 54 | 1008.5 |
| 20260505063635 | 16 | 184 | 19.3 | 29.0 | 0.00 | 0.03 | 0.00 | 53 | 1008.4 |
| 20260505062639 | 16 | 153 | 19.3 | 29.0 | 0.00 | 0.03 | 0.00 | 52 | 1008.3 |
| 20260505061639 | 16 | 218 | 6.4 | 16.1 | 0.00 | 0.03 | 0.00 | 50 | 1008.3 |
| 20260505060643 | 16 | 259 | 11.3 | 14.5 | 0.00 | 0.03 | 0.00 | 48 | 1008.0 |
| 20260505055623 | 17 | 249 | 8.0 | 16.1 | 0.00 | 0.03 | 0.03 | 47 | 1007.8 |
| 20260505054625 | 17 | 268 | 9.7 | 14.5 | 0.00 | 0.03 | 0.03 | 45 | 1007.7 |
| 20260505053632 | 17 | 186 | 6.4 | 9.7 | 0.00 | 0.03 | 0.03 | 44 | 1007.4 |
| 20260505052634 | 17 | 191 | 4.8 | 11.3 | 0.00 | 0.03 | 0.03 | 43 | 1007.3 |
| 20260505051619 | 17 | 209 | 6.4 | 17.7 | 0.00 | 0.03 | 0.03 | 43 | 1007.2 |
| 20260505050642 | 17 | 178 | 9.7 | 24.1 | 0.00 | 0.03 | 0.03 | 42 | 1007.1 |
| 20260505041636 | 17 | 136 | 4.8 | 11.3 | 0.00 | 0.03 | 0.03 | 40 | 1006.5 |
| 20260505040623 | 17 | 232 | 8.0 | 14.5 | 0.00 | 0.03 | 0.03 | 41 | 1006.2 |
| 20260505035623 | 17 | 196 | 1.6 | 3.2 | 0.00 | 0.03 | 0.03 | 42 | 1006.0 |
| 20260505034625 | 17 | 196 | 0.0 | 1.6 | 0.00 | 0.03 | 0.03 | 39 | 1005.9 |
| 20260505033628 | 18 | 196 | 1.6 | 4.8 | 0.00 | 0.03 | 0.03 | 38 | 1005.9 |
| 20260505032650 | 18 | 196 | 3.2 | 4.8 | 0.00 | 0.03 | 0.03 | 37 | 1005.6 |
| 20260505031617 | 18 | 198 | 1.6 | 3.2 | 0.00 | 0.03 | 0.03 | 35 | 1005.5 |
| 20260505030619 | 19 | 198 | 1.6 | 6.4 | 0.00 | 0.03 | 0.03 | 35 | 1005.4 |
| 20260505025620 | 20 | 211 | 6.4 | 11.3 | 0.00 | 0.03 | 0.03 | 34 | 1005.3 |
| 20260505024621 | 20 | 198 | 6.4 | 12.9 | 0.00 | 0.03 | 0.03 | 33 | 1005.2 |
| 20260505023623 | 20 | 174 | 4.8 | 11.3 | 0.00 | 0.03 | 0.03 | 33 | 1005.2 |
| 20260505022627 | 20 | 205 | 4.8 | 9.7 | 0.00 | 0.03 | 0.03 | 32 | 1005.0 |
| 20260505021628 | 20 | 193 | 6.4 | 11.3 | 0.00 | 0.03 | 0.03 | 31 | 1004.9 |
| 20260505020650 | 21 | 237 | 6.4 | 12.9 | 0.00 | 0.03 | 0.03 | 31 | 1004.8 |
| 20260505015636 | 21 | 208 | 6.4 | 12.9 | 0.00 | 0.03 | 0.03 | 30 | 1004.7 |
| 20260505014617 | 21 | 213 | 11.3 | 16.1 | 0.00 | 0.03 | 0.03 | 29 | 1004.7 |
| 20260505013625 | 21 | 157 | 9.7 | 14.5 | 0.00 | 0.03 | 0.03 | 29 | 1004.7 |
| 20260505012626 | 21 | 197 | 8.0 | 19.3 | 0.00 | 0.03 | 0.03 | 29 | 1004.7 |
| 20260505011626 | 21 | 173 | 12.9 | 22.5 | 0.00 | 0.03 | 0.03 | 30 | 1004.9 |
| 20260505010630 | 22 | 184 | 9.7 | 17.7 | 0.00 | 0.03 | 0.03 | 29 | 1004.9 |
| 20260505005633 | 22 | 205 | 14.5 | 22.5 | 0.00 | 0.03 | 0.03 | 28 | 1005.0 |
| 20260505004636 | 22 | 173 | 12.9 | 24.1 | 0.00 | 0.03 | 0.03 | 27 | 1004.9 |
| 20260505003636 | 22 | 211 | 9.7 | 16.1 | 0.00 | 0.03 | 0.03 | 27 | 1005.0 |
| 20260505002619 | 22 | 260 | 11.3 | 17.7 | 0.00 | 0.03 | 0.03 | 27 | 1005.0 |
| 20260505001620 | 22 | 224 | 12.9 | 24.1 | 0.00 | 0.03 | 0.03 | 28 | 1005.2 |
| 20260505000620 | 22 | 255 | 14.5 | 20.9 | 0.00 | 0.03 | 0.03 | 27 | 1005.2 |
| 20260504235623 | 22 | 231 | 12.9 | 19.3 | 0.00 | 0.03 | 0.03 | 27 | 1005.3 |
| 20260504234646 | 22 | 257 | 14.5 | 22.5 | 0.00 | 0.03 | 0.03 | 28 | 1005.3 |
| 20260504233626 | 22 | 244 | 20.9 | 30.6 | 0.00 | 0.03 | 0.03 | 28 | 1005.3 |
| 20260504232629 | 23 | 255 | 17.7 | 32.2 | 0.00 | 0.03 | 0.03 | 28 | 1005.2 |
| 20260504231635 | 23 | 244 | 16.1 | 33.8 | 0.00 | 0.03 | 0.03 | 29 | 1005.3 |
| 20260504230656 | 23 | 173 | 17.7 | 29.0 | 0.00 | 0.03 | 0.03 | 28 | 1005.2 |
| 20260504225640 | 23 | 242 | 9.7 | 17.7 | 0.00 | 0.03 | 0.03 | 24 | 1005.2 |
| 20260504224623 | 23 | 261 | 14.5 | 20.9 | 0.00 | 0.03 | 0.03 | 23 | 1005.2 |
| 20260504223627 | 24 | 336 | 4.8 | 20.9 | 0.00 | 0.03 | 0.03 | 22 | 1005.3 |
| 20260504222648 | 24 | 271 | 3.2 | 17.7 | 0.00 | 0.03 | 0.03 | 23 | 1005.2 |
| 20260504221634 | 23 | 278 | 11.3 | 17.7 | 0.00 | 0.03 | 0.03 | 21 | 1005.4 |
| 20260504220618 | 23 | 344 | 9.7 | 20.9 | 0.00 | 0.03 | 0.03 | 23 | 1005.4 |
| 20260504215621 | 23 | 283 | 6.4 | 17.7 | 0.00 | 0.03 | 0.03 | 21 | 1005.6 |
| 20260504214627 | 23 | 311 | 6.4 | 16.1 | 0.00 | 0.03 | 0.03 | 24 | 1005.7 |
| 20260504193632 | 22 | 284 | 1.6 | 17.7 | 0.00 | 0.03 | 0.03 | 30 | 1007.3 |
| 20260504192628 | 22 | 305 | 12.9 | 22.5 | 0.00 | 0.03 | 0.03 | 32 | 1007.4 |
| 20260504191646 | 22 | 271 | 8.0 | 14.5 | 0.00 | 0.03 | 0.03 | 32 | 1007.5 |
| 20260504190627 | 22 | 355 | 6.4 | 16.1 | 0.00 | 0.03 | 0.03 | 31 | 1007.6 |
| 20260504185625 | 22 | 286 | 3.2 | 17.7 | 0.00 | 0.03 | 0.03 | 33 | 1007.7 |
| 20260504184627 | 22 | 324 | 9.7 | 14.5 | 0.00 | 0.03 | 0.03 | 33 | 1007.8 |
| 20260504183624 | 22 | 264 | 14.5 | 20.9 | 0.00 | 0.03 | 0.03 | 32 | 1007.9 |
| 20260504182627 | 22 | 200 | 6.4 | 20.9 | 0.00 | 0.03 | 0.03 | 29 | 1008.1 |
| 20260504181630 | 22 | 281 | 8.0 | 14.5 | 0.03 | 0.03 | 0.03 | 34 | 1008.2 |
| 20260504180616 | 22 | 105 | 4.8 | 14.5 | 0.03 | 0.03 | 0.03 | 34 | 1008.4 |
| 20260504175618 | 21 | 173 | 6.4 | 11.3 | 0.03 | 0.03 | 0.03 | 34 | 1008.5 |